Vertical_Velocity
-0 -1 -1 -2 -1 -2 -1 -2 -1 -1 -1 -2 -2 -1 -1 -3 1 -4 -8 0 -3 0 63 -16 -13 -4 0 8 -6 -3 1 1 4 -2 7 7 -5 17 15 -14 7 8 -14 -7 8
-1 -1 -1 -1 -2 -3 -2 -1 -1 -1 -1 -1 -2 -0 1 -3 -3 -7 3 -1 -1 1 10 4 6 18 16 -2 4 5 1 2 0 0 1 1 -7 -0 -25 4 13 4 2 5 -4
-1 -1 -1 -1 -1 -2 -1 -2 -0 -2 -1 -1 -2 -0 1 -1 -4 -29 3 -4 -1 3 2 16 5 9 -9 4 3 -5 1 3 8 -1 -10 -1 5 2 -7 6 0 -5 -2 -6 -6
-2 -2 -1 -2 -2 -3 -3 -2 -0 -2 -1 -2 -1 -1 -1 1 -4 7 3 -5 -3 2 8 -7 11 -9 -4 1 -0 -3 3 -3 9 5 3 1 -2 5 -7 6 -9 -7 -5 -3 4
-1 -2 -2 -2 -1 -2 -2 -2 -1 -1 -0 -2 0 -0 -0 1 -33 -5 -0 -2 -3 -0 3 6 -4 4 -4 -1 4 -0 0 1 -3 -1 4 -5 3 -0 4 3 -2 -4 -1 -4 17
-1 -2 -2 -3 -2 -2 -2 -1 -1 -1 -0 -1 1 1 2 -0 5 -10 2 -3 -3 1 -3 13 17 -6 -16 1 3 3 0 3 6 1 5 -10 8 -26 18 1 1 -2 -3 3 0
-3 -3 -2 -2 -2 -3 -3 -1 -1 -2 -1 -1 0 0 -0 -41 8 19 5 -2 2 -6 -10 48 10 -27 9 4 7 3 -8 0 3 4 -1 1 7 2 4 -2 -2 1 5 7 -1
-2 -2 -2 -3 -2 -4 -3 -2 -1 -2 -2 -1 1 1 -16 -5 -5 3 19 14 -8 -16 54 12 -5 -19 -6 2 -6 -6 -6 -1 3 -0 -2 -14 5 5 5 -7 -0 6 6 4 1
-2 -4 -2 -2 -2 -4 -4 -2 -0 -1 0 -1 2 3 -18 11 -5 -8 -8 2 -0 -0 48 5 -7 -2 -4 -4 -4 -4 0 0 3 -0 -1 -5 2 5 5 -2 3 5 4 0 1
-1 -1 -3 -2 -2 -5 -3 -0 3 1 1 -1 2 6 -5 -23 -5 -9 -9 -8 12 5 24 -2 -4 -2 -2 -6 -4 -4 -1 -2 1 1 2 2 3 3 3 -3 0 -1 4 1 -3
-2 -2 -2 -2 -2 -3 -8 -11 -2 -2 0 -13 1 -2 8 19 10 4 -3 -3 10 18 2 3 -5 -3 -4 -4 -8 -1 1 -1 -1 0 -4 -1 0 1 2 3 3 2 2 1 -2
-2 -2 -3 -2 -4 1 -1 -2 3 35 -7 2 -8 -6 -6 19 10 2 10 21 14 -1 2 -1 -3 -5 -1 1 0 3 1 -2 4 2 -0 1 3 0 1 -2 -8 -5 -2 -1 3
-3 -4 -3 -4 -5 1 -2 -5 -8 11 6 -23 -11 -7 -15 21 -9 -12 15 -7 -0 3 -0 -2 -10 2 2 2 4 -1 -2 0 -1 -1 1 -4 3 4 2 4 6 9 -5 5 -8
-3 -4 -4 -5 -4 -0 -2 16 38 2 2 -13 1 -32 -11 12 -5 19 -9 -4 4 -4 0 -3 -9 1 2 -1 -4 -5 0 -3 -2 -9 -4 2 -1 1 1 1 2 4 2 -3 4
-2 -3 -1 -1 -3 -2 2 1 -3 7 2 -9 -0 -11 -22 10 -0 -30 -6 21 -3 -5 5 -29 1 1 1 -1 -4 -2 -9 -6 -3 -3 -1 -8 -8 -7 1 2 0 -0 0 1 -6
-1 -3 -3 -1 -4 1 -6 -9 -2 2 -11 -4 -2 -1 11 4 -4 -2 5 20 -12 6 0 -6 -3 0 -5 1 -5 -2 -2 -1 -1 -5 -2 -7 -5 -2 -2 -8 1 0 2 2 2
-1 -0 -3 -2 -9 -2 4 -4 1 4 -8 -15 -1 3 -1 -1 4 6 0 7 -1 4 1 -2 -4 1 -1 -3 -3 -8 -7 -4 -6 -7 -6 -1 -3 -12 -2 -1 -4 -4 -1 6 2
-3 2 2 -4 -3 5 -2 2 7 -8 -4 -3 -1 6 -3 -3 -4 -2 4 3 2 5 1 -1 -5 -1 4 -1 -5 2 -6 -4 2 0 -2 -2 -1 -4 -2 -1 -4 -2 -1 -2 1
-3 1 -10 1 2 5 6 6 -7 -1 -7 2 13 4 2 3 -5 8 -1 -3 -6 -2 -1 2 -4 3 -1 -1 -14 -3 -5 -6 -6 -1 5 -4 3 -2 2 3 4 2 5 -0 0
-7 -6 -20 5 -2 5 7 -6 1 3 4 -1 8 -3 -1 -2 8 7 -1 -6 -3 -1 -1 -10 -1 -3 -2 4 4 -22 -8 -14 -5 -1 -1 4 1 -5 2 2 2 3 3 5 3
-3 -1 -6 -2 8 11 -0 -5 -1 -13 21 10 -1 1 -5 -5 -2 -2 -5 -0 1 -2 2 1 -1 -15 1 -1 -6 -0 4 1 -12 -5 -3 -1 -3 -6 -2 -2 -1 2 1 -2 1
-1 3 23 -3 4 -1 0 -4 -2 -10 -0 -3 14 8 4 -1 1 3 -3 -10 -4 -4 -1 -9 -1 -0 -13 -5 -3 -2 -1 -4 -7 2 -1 -4 -9 -1 -1 -0 -1 3 4 3 -1
-2 -6 10 46 1 -0 -3 -6 3 6 -6 -1 0 7 -2 -3 6 -1 -0 -6 2 2 -6 -10 -5 -1 -1 4 2 0 2 -0 -2 -4 -2 -6 -5 1 0 -0 7 -3 6 8 13
1 2 -8 -1 -3 8 2 -8 -3 -4 -5 2 -3 14 4 1 1 -5 1 0 0 -3 -0 -0 0 -6 -7 -16 -5 -1 1 0 -6 -3 -1 -3 2 4 3 1 3 6 5 2 4
1 0 -6 -3 -7 1 7 5 0 -2 -0 9 -7 5 0 1 0 -1 1 3 7 -4 2 -7 -1 -1 -1 -0 -0 -3 -3 1 -3 -1 -8 -1 -3 -1 -1 -1 4 4 3 -3 1
2 4 -6 -2 -0 4 -4 -5 0 -17 18 -12 5 -3 2 2 2 -5 -2 -2 -11 4 -1 1 -1 -1 -2 -1 0 0 2 -0 -0 0 0 0 2 -2 6 4 -0 3 -1 -1 1
1 1 13 -6 -1 7 -8 -15 -15 11 -20 -3 -0 3 2 3 4 2 3 -1 -7 -6 -0 -2 -3 -2 -4 0 -1 12 -4 -2 -0 -0 -7 -6 -2 1 4 2 2 3 0 1 -0
Height
1519 1517 1515 1512 1509 1506 1503 1500 1498 1495 1493 1490 1489 1488 1487 1485 1486 1486 1485 1488 1489 1491 1497 1499 1498 1497 1496 1494 1503 1503 1504 1493 1488 1487 1489 1486 1489 1489 1489 1496 1504 1506 1512 1519 1524
1519 1516 1514 1511 1509 1506 1502 1499 1496 1493 1491 1489 1488 1487 1486 1484 1484 1484 1484 1485 1487 1488 1491 1499 1498 1494 1490 1499 1502 1501 1493 1485 1478 1482 1487 1487 1488 1491 1495 1502 1508 1512 1518 1522 1525
1518 1515 1513 1510 1507 1504 1501 1498 1495 1492 1490 1488 1486 1486 1485 1484 1484 1480 1483 1484 1485 1486 1488 1494 1494 1491 1493 1492 1496 1494 1488 1479 1479 1482 1485 1484 1487 1491 1496 1507 1511 1513 1518 1523 1524
1516 1514 1511 1509 1506 1503 1500 1497 1493 1491 1489 1486 1485 1485 1484 1484 1487 1478 1480 1482 1484 1484 1484 1489 1490 1494 1501 1490 1485 1493 1475 1478 1480 1482 1484 1484 1487 1492 1498 1507 1513 1517 1520 1522 1524
1515 1512 1510 1507 1504 1502 1499 1495 1492 1490 1487 1485 1484 1483 1484 1483 1476 1477 1480 1481 1482 1481 1481 1485 1484 1486 1497 1488 1483 1483 1475 1478 1481 1483 1484 1485 1490 1496 1503 1508 1513 1518 1520 1522 1526
1513 1510 1508 1505 1502 1499 1496 1493 1490 1488 1486 1484 1482 1482 1483 1482 1474 1478 1480 1480 1481 1480 1479 1479 1481 1481 1489 1500 1498 1478 1476 1478 1482 1485 1486 1489 1493 1496 1505 1509 1514 1517 1519 1521 1524
1511 1508 1506 1503 1500 1497 1494 1491 1488 1486 1484 1482 1481 1480 1479 1472 1474 1477 1478 1479 1480 1480 1476 1482 1473 1473 1486 1494 1486 1479 1491 1481 1482 1484 1490 1491 1499 1501 1504 1509 1513 1516 1519 1522 1526
1508 1505 1503 1501 1498 1494 1491 1488 1486 1484 1483 1481 1480 1479 1473 1471 1472 1473 1476 1478 1479 1478 1479 1477 1473 1476 1480 1488 1489 1487 1504 1514 1488 1487 1493 1493 1515 1501 1505 1509 1512 1515 1520 1523 1527
1506 1503 1501 1499 1495 1492 1488 1485 1483 1481 1480 1480 1480 1479 1471 1469 1470 1472 1474 1476 1477 1477 1477 1475 1473 1478 1483 1500 1509 1519 1539 1518 1496 1487 1492 1497 1510 1502 1505 1509 1512 1516 1520 1524 1528
1503 1501 1498 1496 1493 1490 1485 1482 1480 1479 1479 1479 1479 1481 1466 1464 1467 1469 1472 1473 1474 1474 1474 1473 1476 1482 1492 1503 1539 1536 1533 1518 1504 1492 1491 1498 1502 1502 1505 1509 1512 1516 1520 1524 1528
1500 1498 1495 1493 1491 1488 1483 1481 1481 1480 1478 1474 1470 1464 1456 1462 1464 1465 1469 1471 1471 1471 1474 1470 1484 1494 1487 1493 1506 1493 1518 1512 1486 1484 1492 1498 1500 1501 1503 1507 1512 1515 1519 1523 1525
1497 1495 1493 1491 1489 1487 1485 1483 1482 1485 1474 1469 1464 1463 1456 1460 1465 1462 1466 1470 1469 1474 1469 1474 1485 1468 1476 1481 1489 1493 1501 1490 1478 1478 1484 1501 1504 1500 1501 1504 1507 1512 1515 1518 1522
1495 1493 1490 1488 1487 1486 1483 1483 1482 1482 1478 1460 1457 1456 1454 1457 1457 1457 1462 1464 1466 1472 1469 1478 1468 1461 1469 1476 1485 1486 1488 1487 1493 1489 1481 1493 1509 1505 1500 1502 1505 1507 1511 1514 1516
1492 1491 1489 1486 1488 1484 1482 1483 1483 1483 1485 1459 1450 1449 1451 1453 1452 1453 1457 1462 1463 1470 1465 1469 1458 1460 1463 1465 1471 1506 1475 1481 1499 1527 1552 1514 1538 1509 1503 1502 1501 1502 1504 1508 1512
1490 1489 1489 1487 1484 1483 1483 1481 1481 1482 1508 1437 1438 1443 1446 1449 1450 1452 1454 1458 1463 1463 1463 1469 1460 1459 1461 1469 1467 1487 1476 1490 1511 1536 1544 1511 1524 1514 1501 1506 1500 1497 1500 1504 1507
1487 1486 1485 1485 1482 1484 1482 1482 1481 1491 1492 1433 1424 1434 1445 1446 1449 1449 1451 1455 1457 1458 1456 1456 1450 1451 1453 1450 1458 1468 1480 1497 1511 1531 1562 1519 1512 1520 1507 1499 1496 1492 1495 1498 1501
1484 1483 1481 1481 1482 1483 1483 1482 1491 1496 1440 1429 1426 1431 1439 1446 1447 1446 1449 1454 1464 1479 1476 1458 1456 1445 1446 1461 1462 1470 1495 1532 1542 1561 1548 1512 1519 1508 1486 1485 1488 1489 1490 1492 1496
1479 1478 1476 1475 1480 1482 1483 1485 1495 1456 1448 1418 1421 1431 1442 1439 1443 1442 1447 1458 1452 1458 1469 1482 1488 1449 1444 1453 1476 1484 1497 1530 1560 1575 1542 1514 1517 1499 1475 1479 1483 1486 1488 1491 1494
1475 1473 1469 1471 1476 1481 1484 1488 1469 1450 1431 1430 1424 1436 1443 1436 1438 1441 1444 1450 1450 1448 1472 1475 1471 1440 1442 1449 1459 1486 1511 1506 1553 1553 1553 1520 1493 1479 1476 1479 1482 1484 1488 1493 1496
1472 1469 1463 1468 1472 1478 1481 1474 1457 1442 1436 1440 1448 1431 1444 1439 1441 1439 1442 1437 1444 1440 1440 1452 1475 1445 1443 1444 1455 1460 1483 1526 1543 1551 1550 1515 1512 1515 1489 1485 1482 1484 1489 1493 1497
1473 1470 1456 1462 1471 1476 1473 1466 1456 1446 1453 1448 1441 1442 1430 1433 1432 1435 1438 1433 1434 1435 1436 1444 1460 1458 1445 1453 1468 1471 1487 1494 1509 1522 1555 1537 1520 1481 1483 1480 1480 1484 1487 1491 1496
1474 1470 1454 1462 1469 1467 1465 1461 1456 1445 1451 1443 1437 1432 1427 1420 1427 1429 1431 1428 1426 1429 1442 1440 1453 1470 1456 1437 1435 1445 1460 1473 1522 1511 1515 1517 1515 1468 1473 1475 1476 1485 1489 1493 1497
1476 1469 1458 1461 1464 1460 1456 1454 1449 1448 1440 1437 1434 1420 1408 1409 1429 1418 1418 1414 1418 1424 1434 1434 1459 1482 1462 1449 1439 1449 1456 1470 1478 1482 1510 1522 1515 1472 1473 1479 1483 1487 1492 1496 1498
1479 1467 1460 1457 1456 1455 1451 1447 1443 1438 1434 1431 1426 1416 1410 1411 1404 1416 1415 1408 1413 1417 1421 1427 1445 1458 1480 1462 1448 1461 1459 1463 1474 1505 1498 1500 1494 1482 1481 1484 1486 1489 1494 1499 1502
1478 1467 1466 1463 1455 1453 1450 1444 1436 1431 1424 1420 1419 1406 1407 1414 1408 1407 1404 1406 1406 1411 1417 1428 1453 1444 1444 1436 1437 1444 1456 1457 1467 1469 1492 1487 1485 1482 1480 1482 1487 1491 1496 1502 1506
1477 1471 1466 1458 1459 1458 1447 1441 1438 1424 1415 1409 1407 1398 1397 1408 1404 1400 1398 1406 1410 1412 1419 1422 1450 1443 1451 1436 1442 1453 1445 1449 1450 1454 1468 1471 1484 1472 1476 1482 1490 1495 1498 1505 1511
1476 1471 1467 1456 1453 1460 1440 1433 1424 1413 1404 1397 1394 1394 1398 1401 1394 1391 1388 1392 1398 1410 1420 1428 1443 1462 1466 1446 1450 1455 1441 1448 1450 1447 1459 1481 1477 1472 1481 1488 1495 1500 1503 1506 1511